Regional Weather Roundup
Issued by NWS

Current Version | Previous Version | Text Only | Print | Product List | Glossary On
Versions: 1 2 3 4 5 6 7 8 9 10 11 12 13 14 15 16 17 18 19 20 21 22 23 24 25 26 27 28 29 30 31 32 33 34 35 36 37 38 39 40 41 42 43 44 45 46 47 48 49 50
000
ASCA42 TJSJ 231410
RWRPR
PUERTO RICO/U.S. VIRGIN ISLANDS HOURLY WEATHER ROUNDUP
NATIONAL WEATHER SERVICE SAN JUAN PR
1000 AM AST SAT MAY 23 2015

PRZ001-004-231500-
PUERTO RICO

CITY           SKY/WX    TMP DP  RH WIND       PRES   REMARKS
SAN JUAN LMM   MOSUNNY   86  75  70 E15       30.15R HX  95
MAYAGUEZ       MOSUNNY   84  70  61 SE8       30.16
AGUADILLA      MOSUNNY   86  72  62 E16       30.15S HX  92
CEIBA          MOSUNNY   88  73  62 NE8       30.17R HX  96
$$

PRZ006-007-231500-
U.S. VIRGIN ISLANDS

CITY           SKY/WX    TMP DP  RH WIND       PRES   REMARKS
CHARLOTTE AMA  CLOUDY    86  73  66 E13       30.14R HX  93
CHRISTIANSTED  MOSUNNY   88  73  62 E21       30.15R HX  96
$$

HOURLY WEATHER ROUNDUP FOR THE NEWS MEDIA

CITY           SKY/WX    TMP DP  RH WIND       PRES   REMARKS
ORLANDO        MOSUNNY   83  72  69 E12       30.24S
NEW YORK       MOSUNNY   56  26  31 N9        30.42R
NEWARK         MOSUNNY   56  26  31 N10       30.43R
CHICAGO        MOSUNNY   64  36  35 S12       30.34S
HARTFORD       SUNNY     51  22  31 W9G23     30.33R
BOSTON         SUNNY     52  18  26 NW15G22   30.32S
DALLAS         CLOUDY    71  68  90 SE15      30.12R FOG
PHILADELPHIA   MOSUNNY   57  25  29 N12       30.46R
LOS ANGELES    PTSUNNY   59  52  77 CALM      30.08R
WASHINGTON DC  MOSUNNY   61  27  27 VRB3      30.48R


USA.gov is the U.S. government's official web portal to all federal, state and local government web resources and services.